When you browse on this site, cookies collect data to enhance your experience and personalize the content and advertising you see.
Visit our Privacy Policy to learn more. By continuing to use the site, you agree to this use of cookies and data.
  • In Hungary
  • List of Countries
  • For 7 days
  • Water Temperature
  • Satellite Maps
  • Weather Map
  • News
  • Weather Widgets
  • user-avatar
    Login

    Hourly Weather Rincon de la Victoria

    Today, 19 January, Saturday

    Time Temperature Precipitation Wind Pressure Humidity
    00:00 +7°C° 0 mm 4 mps 753 mmHg 64%
    01:00 +7°C° 0 mm 4 mps 753 mmHg 65%
    02:00 +7°C° 0 mm 4 mps 753 mmHg 65%
    03:00 +7°C° 0 mm 4 mps 753 mmHg 65%
    04:00 +7°C° 0 mm 4 mps 753 mmHg 66%
    05:00 +7°C° 0 mm 4 mps 753 mmHg 67%
    06:00 +6°C° 0 mm 4 mps 753 mmHg 68%
    07:00 +7°C° 0 mm 4 mps 753 mmHg 68%
    08:00 +8°C° 0 mm 4 mps 753 mmHg 68%
    09:00 +10°C° 0 mm 3 mps 753 mmHg 68%
    10:00 +11°C° 0 mm 3 mps 753 mmHg 67%
    11:00 +13°C° 0 mm 3 mps 753 mmHg 65%
    12:00 +14°C° 0 mm 3 mps 753 mmHg 63%
    13:00 +14°C° 0.1 mm 3 mps 752 mmHg 65%
    14:00 +14°C° 0.1 mm 3 mps 752 mmHg 66%
    15:00 +16°C° 0.1 mm 3 mps 751 mmHg 67%
    16:00 +14°C° 0.1 mm 3 mps 751 mmHg 73%
    17:00 +13°C° 0.1 mm 3 mps 751 mmHg 78%
    18:00 +12°C° 0.1 mm 3 mps 751 mmHg 83%
    19:00 +12°C° 0.5 mm 3 mps 750 mmHg 85%
    20:00 +12°C° 0.5 mm 3 mps 750 mmHg 87%
    21:00 +12°C° 0.5 mm 3 mps 750 mmHg 89%
    22:00 +12°C° 0.7 mm 3 mps 750 mmHg 89%
    23:00 +12°C° 0.7 mm 4 mps 750 mmHg 90%

    Tomorrow, 20 January, Sunday

    Time Temperature Precipitation Wind Pressure Humidity
    00:00 +12°C° 0.7 mm 4 mps 749 mmHg 90%
    01:00 +12°C° 0 mm 4 mps 749 mmHg 90%
    02:00 +12°C° 0 mm 3 mps 749 mmHg 90%
    03:00 +11°C° 0 mm 3 mps 748 mmHg 90%
    04:00 +11°C° 0 mm 3 mps 748 mmHg 90%
    05:00 +11°C° 0 mm 4 mps 748 mmHg 90%
    06:00 +11°C° 0 mm 4 mps 748 mmHg 89%
    07:00 +11°C° 0 mm 4 mps 748 mmHg 87%
    08:00 +12°C° 0 mm 4 mps 748 mmHg 84%
    09:00 +12°C° 0 mm 4 mps 748 mmHg 81%
    10:00 +13°C° 0.1 mm 4 mps 748 mmHg 78%
    11:00 +14°C° 0.1 mm 4 mps 749 mmHg 75%
    12:00 +15°C° 0.1 mm 5 mps 749 mmHg 72%
    13:00 +15°C° 0.1 mm 5 mps 748 mmHg 71%
    14:00 +14°C° 0.1 mm 5 mps 748 mmHg 71%
    15:00 +14°C° 0.1 mm 6 mps 748 mmHg 70%
    16:00 +13°C° 0 mm 6 mps 749 mmHg 73%
    17:00 +13°C° 0 mm 5 mps 749 mmHg 75%
    18:00 +12°C° 0 mm 5 mps 749 mmHg 77%
    19:00 +10°C° 0 mm 5 mps 750 mmHg 77%
    20:00 +10°C° 0 mm 5 mps 751 mmHg 77%
    21:00 +9°C° 0 mm 5 mps 751 mmHg 76%
    22:00 +9°C° 0 mm 5 mps 752 mmHg 74%
    23:00 +9°C° 0 mm 5 mps 752 mmHg 73%

    Day after tomorrow, 21 January, Monday

    Time Temperature Precipitation Wind Pressure Humidity
    00:00 +8°C° 0 mm 5 mps 753 mmHg 71%
    01:00 +8°C° 0 mm 5 mps 753 mmHg 71%
    02:00 +8°C° 0 mm 5 mps 753 mmHg 71%
    03:00 +7°C° 0 mm 4 mps 753 mmHg 71%
    04:00 +7°C° 0 mm 4 mps 753 mmHg 71%
    05:00 +7°C° 0 mm 4 mps 753 mmHg 71%
    06:00 +6°C° 0 mm 4 mps 753 mmHg 71%
    07:00 +7°C° 0 mm 4 mps 754 mmHg 69%
    08:00 +8°C° 0 mm 4 mps 754 mmHg 66%
    09:00 +8°C° 0 mm 4 mps 754 mmHg 63%
    10:00 +11°C° 0 mm 3 mps 755 mmHg 56%
    11:00 +13°C° 0 mm 3 mps 755 mmHg 49%
    12:00 +15°C° 0 mm 2 mps 755 mmHg 43%
    13:00 +16°C° 0 mm 2 mps 754 mmHg 42%
    14:00 +16°C° 0 mm 2 mps 754 mmHg 41%
    15:00 +16°C° 0 mm 2 mps 754 mmHg 40%
    16:00 +14°C° 0 mm 3 mps 754 mmHg 45%
    17:00 +12°C° 0 mm 3 mps 754 mmHg 50%
    18:00 +11°C° 0 mm 3 mps 755 mmHg 54%
    19:00 +10°C° 0 mm 4 mps 755 mmHg 56%
    20:00 +8°C° 0 mm 4 mps 756 mmHg 58%
    21:00 +8°C° 0 mm 4 mps 756 mmHg 60%
    22:00 +8°C° 0 mm 4 mps 756 mmHg 60%
    23:00 +7°C° 0 mm 4 mps 756 mmHg 60%

    22 January, Tuesday

    Time Temperature Precipitation Wind Pressure Humidity
    00:00 +7°C° 0 mm 4 mps 757 mmHg 61%
    01:00 +7°C° 0 mm 4 mps 757 mmHg 61%
    02:00 +6°C° 0 mm 4 mps 756 mmHg 62%
    03:00 +6°C° 0 mm 4 mps 756 mmHg 62%
    04:00 +6°C° 0 mm 4 mps 756 mmHg 63%
    05:00 +6°C° 0 mm 4 mps 756 mmHg 63%
    06:00 +5°C° 0 mm 4 mps 756 mmHg 63%
    07:00 +6°C° 0 mm 4 mps 756 mmHg 61%
    08:00 +7°C° 0 mm 4 mps 757 mmHg 58%
    09:00 +8°C° 0 mm 4 mps 757 mmHg 56%
    10:00 +11°C° 0 mm 4 mps 757 mmHg 50%
    11:00 +12°C° 0 mm 4 mps 757 mmHg 44%
    12:00 +14°C° 0 mm 4 mps 756 mmHg 38%
    13:00 +14°C° 0 mm 4 mps 756 mmHg 39%
    14:00 +14°C° 0 mm 4 mps 755 mmHg 39%
    15:00 +15°C° 0 mm 5 mps 754 mmHg 40%
    16:00 +13°C° 0 mm 5 mps 754 mmHg 46%
    17:00 +12°C° 0 mm 5 mps 754 mmHg 51%
    18:00 +9°C° 0 mm 5 mps 754 mmHg 57%
    19:00 +10°C° 0 mm 4 mps 754 mmHg 59%
    20:00 +8°C° 0 mm 4 mps 754 mmHg 62%
    21:00 +8°C° 0 mm 4 mps 754 mmHg 65%
    22:00 +10°C° 0 mm 4 mps 754 mmHg 69%
    23:00 +10°C° 0 mm 4 mps 753 mmHg 73%

    23 January, Wednesday

    Time Temperature Precipitation Wind Pressure Humidity
    00:00 +10°C° 0 mm 4 mps 753 mmHg 77%
    01:00 +9°C° 0.1 mm 5 mps 752 mmHg 77%
    02:00 +10°C° 0.1 mm 6 mps 752 mmHg 78%
    03:00 +10°C° 0.1 mm 6 mps 752 mmHg 78%
    04:00 +9°C° 0 mm 6 mps 752 mmHg 77%
    05:00 +8°C° 0 mm 6 mps 752 mmHg 76%
    06:00 +8°C° 0 mm 6 mps 752 mmHg 75%
    07:00 +8°C° 0 mm 6 mps 752 mmHg 73%
    08:00 +8°C° 0 mm 6 mps 753 mmHg 72%
    09:00 +8°C° 0 mm 6 mps 753 mmHg 70%
    10:00 +9°C° 0 mm 6 mps 753 mmHg 66%
    11:00 +10°C° 0 mm 6 mps 752 mmHg 62%
    12:00 +11°C° 0 mm 6 mps 752 mmHg 58%
    13:00 +11°C° 0 mm 7 mps 751 mmHg 58%
    14:00 +12°C° 0 mm 8 mps 750 mmHg 59%
    15:00 +12°C° 0 mm 9 mps 750 mmHg 59%
    16:00 +11°C° 0 mm 9 mps 749 mmHg 62%
    17:00 +11°C° 0 mm 9 mps 749 mmHg 65%
    18:00 +11°C° 0 mm 9 mps 749 mmHg 67%
    19:00 +11°C° 0 mm 9 mps 749 mmHg 69%
    20:00 +11°C° 0 mm 9 mps 749 mmHg 71%
    21:00 +11°C° 0 mm 9 mps 749 mmHg 73%
    22:00 +11°C° 0 mm 8 mps 749 mmHg 75%
    23:00 +10°C° 0 mm 8 mps 748 mmHg 77%

    24 January, Thursday

    Time Temperature Precipitation Wind Pressure Humidity
    00:00 +10°C° 0 mm 8 mps 748 mmHg 78%
    01:00 +10°C° 0.1 mm 8 mps 747 mmHg 78%
    02:00 +11°C° 0.1 mm 8 mps 746 mmHg 78%
    03:00 +11°C° 0.1 mm 8 mps 746 mmHg 78%
    04:00 +11°C° 0.1 mm 8 mps 745 mmHg 78%
    05:00 +11°C° 0.1 mm 8 mps 745 mmHg 78%
    06:00 +12°C° 0.1 mm 8 mps 745 mmHg 78%
    07:00 +12°C° 0 mm 8 mps 745 mmHg 77%
    08:00 +12°C° 0 mm 8 mps 745 mmHg 77%
    09:00 +12°C° 0 mm 7 mps 745 mmHg 76%
    10:00 +12°C° 0.1 mm 8 mps 745 mmHg 71%
    11:00 +13°C° 0.1 mm 8 mps 745 mmHg 65%
    12:00 +15°C° 0.1 mm 8 mps 745 mmHg 60%
    13:00 +15°C° 0 mm 8 mps 744 mmHg 58%
    14:00 +15°C° 0 mm 8 mps 744 mmHg 56%
    15:00 +15°C° 0 mm 8 mps 744 mmHg 53%
    16:00 +14°C° 0 mm 7 mps 744 mmHg 56%
    17:00 +11°C° 0 mm 7 mps 744 mmHg 59%
    18:00 +10°C° 0 mm 6 mps 745 mmHg 62%
    19:00 +9°C° 0 mm 6 mps 745 mmHg 63%
    20:00 +9°C° 0 mm 5 mps 746 mmHg 65%
    21:00 +8°C° 0 mm 5 mps 746 mmHg 66%
    22:00 +7°C° 0 mm 5 mps 747 mmHg 67%
    23:00 +7°C° 0 mm 5 mps 747 mmHg 68%
    Show more